Temperature
7 6 6 6 6 7 7 7 6 6 6 6 6 6 7 7 7 7 7 8 8 9 9 9 9 8 8 8 8 8 8 8 8 8 8 8 8 8 8 8 8 8 8 8
5 6 6 6 6 6 6 6 6 6 6 6 5 5 6 6 6 7 7 7 8 8 8 8 8 8 8 8 8 8 8 8 8 8 8 8 8 8 8 8 7 7 7 7
6 6 6 6 6 6 6 6 6 6 5 5 5 6 6 6 6 6 7 7 7 7 7 8 8 8 8 8 8 8 7 7 7 7 7 7 7 7 7 7 7 7 7 7
5 6 6 6 6 6 6 6 6 5 5 4 5 5 6 5 5 5 6 6 7 7 7 7 7 7 7 7 7 7 7 7 7 7 7 7 7 7 7 6 6 6 6 6
5 5 5 6 6 6 5 5 5 5 4 4 4 4 5 5 5 5 5 6 6 6 7 7 7 7 7 7 7 7 7 7 6 6 6 6 6 6 6 6 6 6 6 6
5 5 5 5 5 5 5 4 4 3 3 4 4 4 4 4 5 5 5 5 6 6 6 6 6 6 6 6 6 6 6 6 6 6 6 5 5 5 5 5 5 5 5 5
5 5 5 5 5 5 5 4 4 4 3 4 3 3 4 4 4 4 4 4 5 5 5 6 6 6 6 6 6 6 6 6 5 5 5 5 5 5 5 5 4 5 5 4
5 5 4 4 4 4 4 5 4 5 3 3 2 2 4 4 4 4 4 4 4 5 5 5 5 5 5 5 5 5 5 5 5 5 5 4 4 4 4 4 4 4 4 4
4 4 4 4 4 4 4 3 3 2 1 2 2 2 3 4 3 3 3 3 4 4 4 5 5 5 5 5 5 5 5 5 5 4 4 4 4 4 4 3 3 3 3 3
3 3 3 3 4 3 3 2 1 2 3 3 3 2 3 4 4 3 2 3 3 4 4 4 4 4 4 4 4 4 4 4 4 4 4 4 3 3 3 3 3 3 3 3
3 2 2 2 3 2 2 2 2 1 1 2 2 3 3 3 3 2 2 3 3 4 4 4 4 4 4 4 4 4 4 4 4 3 3 3 3 3 2 2 2 2 2 2
1 1 1 2 2 2 2 2 1 2 1 0 1 3 3 2 2 2 2 3 3 3 3 3 3 3 3 3 3 3 3 3 3 3 3 3 2 2 2 2 2 2 2 2
1 1 2 3 2 1 1 1 0 -0 -1 -1 0 3 3 1 2 2 2 3 3 3 3 3 3 3 3 3 3 3 3 3 2 2 2 2 2 2 2 2 2 1 1 1
1 0 1 3 3 1 0 1 -0 -0 -0 -0 0 2 3 2 2 2 2 2 2 2 2 2 2 2 2 2 2 2 2 2 2 2 2 2 2 1 1 1 1 1 1 1
0 -0 -1 -0 0 0 0 0 -0 -0 0 1 1 1 2 2 1 2 2 2 2 2 2 2 2 2 2 2 2 2 2 2 1 1 1 1 1 1 1 1 1 1 0 0
-1 -1 -1 -1 0 -0 -0 0 0 0 0 -0 1 1 1 2 2 1 2 1 1 1 1 1 1 1 1 1 1 1 1 1 1 1 1 1 1 0 0 0 0 0 -0 -0
-2 -2 -1 -0 -1 -0 0 0 0 -0 -1 -0 1 2 1 1 1 1 1 1 1 1 1 1 1 1 1 1 1 1 1 1 1 0 0 0 0 -0 -0 -0 -0 -1 -1 -1
-2 -2 -2 -2 -1 0 2 0 -0 -0 -0 -1 0 0 0 0 1 1 2 2 1 1 1 1 1 0 0 0 0 0 0 0 0 0 -0 -0 -0 -1 -1 -1 -1 -1 -1 -1
-2 -2 -2 -2 -1 -1 1 0 -1 -1 -0 -1 -0 -0 0 0 -0 1 2 2 1 1 1 0 0 -0 -0 -0 -0 -0 -0 -0 -0 -1 -1 -1 -1 -1 -1 -1 -1 -2 -2 -2
-3 -2 -2 -2 -1 -0 1 0 -0 -0 -0 -0 -1 -1 -1 -1 -1 -1 1 1 1 0 0 0 -0 -0 -0 -0 -1 -1 -1 -1 -1 -1 -1 -1 -1 -1 -2 -2 -2 -2 -2 -2
-3 -3 -2 -2 -2 -1 -0 -1 -0 0 1 1 0 -0 -1 -2 -0 1 1 0 0 -0 -0 -0 -1 -1 -1 -1 -1 -1 -1 -1 -1 -1 -1 -2 -2 -2 -2 -2 -2 -2 -2 -2
-2 -2 -3 -3 -2 -0 -1 -2 -1 0 1 1 1 1 0 0 0 0 0 -0 -0 -1 -1 -1 -1 -1 -1 -1 -1 -2 -2 -2 -2 -2 -2 -2 -2 -2 -3 -3 -3 -3 -3 -3
-3 -2 -2 -2 -0 -0 -0 -0 1 1 1 1 1 1 0 -0 0 0 -0 -0 -1 -1 -1 -1 -1 -2 -2 -2 -2 -2 -2 -2 -2 -2 -2 -2 -3 -3 -3 -3 -3 -3 -3 -3
-4 -4 -3 -3 -2 -1 -0 0 1 1 1 1 1 1 0 0 -0 -0 -1 -1 -1 -1 -1 -2 -2 -2 -2 -2 -2 -2 -2 -3 -2 -2 -2 -3 -3 -3 -3 -3 -3 -3 -3 -4
-3 -4 -4 -4 -3 -2 -0 1 1 1 1 1 0 0 0 -0 -0 -1 -1 -1 -1 -1 -2 -2 -2 -2 -2 -2 -2 -3 -3 -3 -3 -3 -3 -3 -3 -3 -3 -4 -4 -4 -4 -4
-4 -4 -3 -1 -1 -2 -0 1 1 1 0 0 -0 -0 -0 -0 -1 -1 -1 -1 -2 -2 -2 -2 -2 -2 -3 -3 -3 -3 -3 -3 -3 -3 -3 -3 -4 -4 -4 -4 -4 -4 -4 -4
Wind_Speed
2 2 3 6 7 4 4 4 6 6 3 3 7 11 12 7 5 6 6 5 5 5 3 2 1 2 2 3 3 3 4 3 3 2 2 2 2 2 1 1 2 2 2 3
2 4 6 4 3 3 4 4 5 6 3 3 6 10 10 6 6 6 6 6 5 3 2 1 0 1 2 3 3 3 4 4 4 3 3 2 2 1 1 1 1 1 2 3
6 4 2 3 3 3 4 6 6 5 5 3 4 8 5 3 3 4 4 4 3 4 4 2 1 2 1 1 2 3 4 4 4 3 2 2 2 2 1 1 0 1 1 2
3 3 2 3 3 4 5 4 4 3 2 4 1 5 6 4 4 4 4 3 4 3 3 2 2 2 2 2 1 2 2 3 3 4 4 4 3 2 2 1 1 1 1 2
3 1 2 4 4 4 4 1 1 2 2 3 1 3 8 3 4 5 4 4 4 4 3 3 3 2 2 1 1 1 2 3 3 3 4 4 3 2 1 1 1 1 1 1
3 1 2 3 1 3 2 2 3 2 2 3 4 4 7 4 5 5 3 3 3 3 2 2 1 0 1 1 1 1 2 2 3 3 3 4 4 3 2 1 1 0 0 0
3 2 1 1 2 2 2 3 3 4 2 5 2 4 9 6 5 5 5 4 3 2 1 1 0 0 1 1 0 1 2 2 2 2 3 3 4 4 4 3 2 1 1 1
1 4 2 0 2 3 3 5 5 4 4 5 2 6 7 5 3 2 2 2 2 2 2 2 2 1 1 0 0 1 2 2 2 2 2 2 2 2 2 2 3 2 2 2
3 3 1 1 1 4 3 2 3 4 1 3 6 7 8 2 2 1 1 2 2 2 2 2 2 1 1 1 1 1 2 2 2 2 2 1 2 2 2 2 2 2 2 2
4 2 2 2 2 2 2 5 4 3 2 4 6 6 5 5 4 2 2 2 3 2 2 2 2 1 1 1 1 0 1 2 2 2 2 1 1 2 2 2 2 2 1 1
3 2 3 1 3 4 2 2 3 3 3 4 4 7 5 6 4 3 4 4 3 3 2 2 2 2 1 1 0 0 0 1 1 1 1 1 1 1 1 1 2 2 1 2
2 3 3 5 3 2 3 4 6 4 4 4 4 8 4 4 3 3 4 4 3 3 2 2 2 1 1 1 1 1 0 1 1 1 1 1 1 1 1 1 2 1 2 2
4 3 1 3 3 2 1 2 2 2 3 5 5 8 2 0 1 2 3 4 3 3 2 2 1 1 2 2 2 1 1 1 1 1 1 1 1 1 2 2 2 2 2 2
3 4 6 8 6 3 4 5 4 4 4 6 9 10 7 6 6 6 5 4 3 2 2 1 2 3 3 2 2 2 1 1 1 1 1 1 2 2 2 2 2 2 2 2
3 3 5 6 5 4 7 9 8 10 9 10 10 10 12 8 7 6 5 4 3 3 3 3 3 3 3 3 2 2 1 1 1 1 1 2 2 2 2 2 2 2 2 3
2 3 1 5 4 5 9 12 12 12 9 11 11 14 9 6 5 5 5 5 5 4 4 3 3 3 3 3 2 2 1 1 0 1 2 2 1 2 2 2 2 2 2 3
3 4 2 4 4 5 9 9 10 7 8 8 12 12 5 5 6 6 6 5 5 5 4 4 4 4 4 3 2 2 2 1 0 1 1 1 2 2 2 2 2 3 3 3
6 4 2 2 2 8 7 2 6 7 8 9 8 7 5 7 6 5 5 5 5 5 4 4 4 3 3 3 2 1 1 1 1 1 2 2 2 2 2 2 2 3 3 3
6 6 3 2 4 8 8 3 4 5 7 7 9 8 6 2 2 3 3 3 5 5 4 4 4 4 3 2 2 1 1 1 1 2 3 2 2 2 2 3 3 3 3 3
2 4 4 3 4 7 6 2 2 2 6 5 6 7 4 1 1 4 2 2 3 3 3 3 3 2 2 2 1 1 1 1 2 3 3 3 2 2 3 3 3 3 3 3
4 3 6 6 6 9 6 2 4 3 6 3 4 5 4 5 5 4 2 2 2 3 3 2 2 2 2 1 1 1 1 3 3 3 2 2 2 3 3 3 3 3 3 3
8 7 7 6 6 9 4 6 7 7 3 2 3 4 4 5 4 3 2 2 2 3 3 2 1 2 2 1 1 1 3 3 2 2 2 3 3 2 2 2 3 2 2 3
8 9 7 9 9 4 5 7 5 3 3 3 3 4 4 3 4 3 2 3 3 3 2 2 1 2 2 1 1 2 3 2 2 2 2 3 3 2 2 2 3 2 2 2
5 3 4 6 8 6 6 5 5 4 5 4 4 3 3 4 4 4 3 3 3 3 2 2 1 1 3 2 2 3 3 2 1 2 3 2 2 2 2 2 3 2 2 3
6 6 5 6 7 5 6 7 7 5 4 3 2 3 4 4 4 4 3 3 3 3 2 2 2 2 3 3 3 2 2 1 1 2 2 2 2 2 3 3 3 3 4 4
6 8 8 8 7 6 5 4 4 4 4 4 3 2 2 3 4 3 3 3 3 2 2 2 2 2 3 3 3 3 2 1 1 2 2 2 2 2 2 2 3 4 4 6
Wind_Direction
50 96 208 219 207 211 192 217 255 263 279 283 259 270 277 274 256 251 251 241 239 245 259 249 186 156 156 168 167 173 168 170 154 150 156 161 180 190 180 161 159 156 160 153
55 242 235 212 195 206 220 243 265 286 297 277 280 277 273 256 242 241 238 236 235 246 270 265 212 145 174 181 181 177 179 178 179 178 179 173 160 160 149 104 76 143 157 156
196 233 214 178 195 213 237 228 246 267 315 317 312 296 282 287 262 264 243 235 233 225 236 243 221 217 214 208 191 188 189 188 189 169 139 117 97 77 80 84 133 66 113 140
224 263 201 192 213 197 249 239 233 243 298 301 23 292 283 280 289 273 262 252 246 245 240 241 232 229 224 227 207 180 173 163 159 151 154 153 160 177 196 182 170 86 91 109
240 222 191 213 228 198 222 243 209 219 199 294 281 228 283 293 279 271 262 263 261 249 235 236 234 232 239 217 177 168 148 142 137 143 153 155 164 164 141 136 142 139 97 105
244 241 197 208 216 185 172 72 54 53 86 273 231 195 276 252 243 266 273 275 277 265 252 247 254 46 9 51 82 126 140 139 142 148 155 165 172 163 152 174 181 196 56 85
310 288 281 139 97 38 105 100 16 350 343 253 210 211 250 254 246 239 261 280 296 287 262 249 270 1 359 17 82 130 136 148 156 158 169 181 183 178 185 195 200 200 220 251
239 275 256 170 170 181 187 155 168 215 240 280 274 238 254 261 275 265 270 290 330 342 311 269 239 227 228 239 212 166 166 172 164 168 189 191 184 181 191 197 199 201 213 224
190 246 347 15 326 145 146 178 168 144 162 278 269 280 299 258 283 320 339 5 343 313 302 291 277 252 232 227 237 211 195 193 181 182 183 188 193 186 192 198 193 204 209 219
156 249 293 317 72 22 150 147 113 139 191 261 282 269 255 268 262 281 302 311 314 318 321 310 298 285 267 244 261 240 193 207 203 181 184 207 201 193 188 185 202 210 217 223
132 174 302 353 193 201 132 137 137 140 171 187 266 269 232 224 227 238 256 270 284 295 299 305 309 313 314 331 2 331 202 195 212 193 181 177 198 182 176 198 220 218 219 226
135 138 248 254 265 251 197 182 157 175 228 203 226 268 272 223 226 224 255 270 282 283 285 293 305 331 339 334 326 297 264 231 232 201 174 184 198 192 210 234 244 224 224 238
143 132 351 334 336 356 242 204 180 151 154 188 211 262 288 335 280 263 266 279 283 289 299 313 331 322 308 305 303 291 274 256 231 180 166 178 209 216 236 248 253 245 236 246
137 162 197 220 238 212 250 248 218 181 207 228 231 256 281 288 294 296 288 277 272 276 274 290 307 300 292 290 287 283 282 261 227 177 178 217 238 237 246 252 252 250 240 246
125 206 232 255 259 241 242 238 222 220 220 227 246 247 262 265 270 274 267 268 275 273 264 271 280 287 293 293 297 300 291 278 246 195 221 247 256 257 260 265 263 259 249 251
141 192 229 276 264 256 263 248 228 230 231 242 261 269 260 261 262 261 256 253 259 261 261 267 273 278 280 276 277 284 286 282 243 243 261 270 268 267 265 270 270 271 264 265
165 157 187 270 304 319 270 238 212 216 215 211 237 251 256 255 257 253 249 242 242 254 262 265 265 265 268 270 265 264 273 276 250 263 279 272 262 268 275 277 276 272 266 262
165 162 185 270 346 250 253 214 200 220 241 227 243 260 252 247 264 260 235 227 242 250 252 259 264 269 272 267 270 278 293 294 278 277 281 279 274 272 275 274 276 273 260 257
182 166 171 199 253 275 290 243 185 205 267 235 235 254 262 261 329 295 243 220 231 245 252 251 251 261 264 259 251 244 289 284 281 279 278 275 275 272 267 270 272 268 256 258
138 156 169 182 224 249 258 242 189 127 287 257 220 237 237 123 283 272 273 265 265 272 270 256 260 264 259 260 205 177 252 270 274 277 279 282 275 268 265 266 266 265 252 255
154 176 200 206 232 262 255 218 132 169 254 263 209 217 198 203 226 255 299 299 285 288 288 271 259 263 259 245 181 210 254 269 276 283 287 290 283 272 269 274 269 264 259 260
181 182 196 183 215 252 211 148 184 221 250 232 211 213 214 229 251 269 280 289 301 308 307 292 282 292 287 239 186 232 263 277 292 293 294 293 288 282 282 271 275 266 252 255
203 196 190 197 217 246 191 204 226 216 232 236 219 224 207 231 253 269 276 278 286 285 286 290 264 297 308 289 221 237 270 284 293 298 297 298 296 288 282 265 266 264 247 250
240 195 191 240 257 250 243 249 258 243 235 240 229 225 207 226 249 265 271 277 281 282 276 282 270 279 296 301 282 254 273 279 274 287 297 298 296 293 288 275 261 253 248 248
214 179 205 245 264 279 262 238 241 241 240 244 245 223 216 215 243 247 257 264 266 281 285 271 251 261 278 290 289 283 279 264 273 284 292 295 291 288 288 280 268 260 250 250
196 188 196 231 228 211 243 241 221 219 235 236 232 248 244 212 225 241 251 255 255 264 275 273 267 265 277 284 289 291 287 251 252 278 287 288 289 289 291 295 308 299 282 284
Height
1489 1493 1494 1493 1493 1493 1494 1496 1497 1494 1492 1492 1490 1487 1481 1478 1478 1477 1477 1477 1477 1478 1480 1480 1481 1481 1482 1483 1483 1484 1485 1486 1487 1488 1489 1490 1491 1493 1494 1495 1496 1497 1498 1499
1492 1492 1490 1490 1492 1493 1494 1495 1495 1493 1491 1491 1490 1484 1478 1475 1475 1474 1473 1474 1474 1475 1476 1477 1478 1478 1479 1479 1480 1480 1481 1483 1484 1485 1486 1487 1488 1489 1491 1492 1493 1494 1495 1496
1489 1489 1487 1489 1491 1493 1493 1494 1494 1494 1492 1491 1490 1482 1476 1473 1472 1471 1471 1471 1471 1472 1473 1473 1474 1475 1476 1476 1476 1477 1478 1479 1480 1481 1483 1484 1485 1486 1487 1488 1489 1490 1491 1492
1489 1487 1487 1488 1490 1490 1492 1490 1491 1492 1495 1496 1494 1492 1477 1474 1472 1469 1469 1469 1469 1470 1470 1471 1472 1472 1472 1473 1474 1474 1475 1476 1477 1478 1479 1480 1481 1482 1483 1484 1485 1487 1488 1488
1487 1487 1487 1488 1488 1489 1490 1490 1491 1492 1495 1498 1496 1497 1480 1474 1471 1468 1467 1466 1466 1467 1468 1469 1469 1470 1471 1471 1471 1472 1472 1473 1475 1476 1477 1478 1479 1480 1481 1482 1483 1484 1485 1485
1486 1485 1486 1486 1486 1487 1489 1491 1494 1497 1498 1499 1495 1496 1483 1474 1468 1466 1465 1465 1465 1465 1466 1467 1467 1468 1468 1469 1469 1470 1470 1471 1472 1473 1474 1475 1476 1477 1478 1479 1479 1480 1481 1482
1486 1485 1485 1485 1487 1488 1489 1493 1500 1500 1505 1498 1495 1494 1481 1468 1466 1465 1465 1464 1464 1464 1464 1464 1465 1465 1466 1466 1467 1467 1468 1469 1470 1471 1472 1473 1474 1474 1475 1476 1476 1477 1478 1478
1488 1488 1485 1485 1486 1488 1489 1490 1497 1499 1503 1499 1495 1492 1474 1466 1464 1463 1464 1463 1463 1463 1463 1463 1463 1464 1464 1465 1465 1466 1466 1467 1468 1469 1469 1470 1471 1471 1472 1473 1473 1474 1475 1475
1488 1487 1486 1485 1485 1486 1489 1493 1493 1502 1508 1507 1494 1487 1472 1464 1463 1463 1463 1462 1462 1462 1462 1462 1462 1462 1463 1463 1464 1464 1465 1465 1466 1466 1467 1467 1468 1468 1469 1470 1470 1471 1471 1472
1487 1491 1487 1486 1485 1487 1487 1491 1498 1500 1499 1498 1491 1487 1476 1465 1462 1463 1462 1462 1461 1461 1461 1461 1461 1461 1461 1462 1462 1463 1463 1463 1463 1464 1464 1465 1465 1466 1466 1467 1467 1468 1468 1469
1486 1491 1490 1488 1487 1488 1490 1491 1493 1499 1499 1499 1496 1480 1465 1462 1461 1462 1461 1461 1461 1461 1460 1460 1460 1460 1460 1460 1460 1461 1460 1461 1461 1461 1461 1462 1462 1463 1463 1464 1464 1464 1464 1465
1486 1491 1493 1489 1486 1485 1485 1487 1492 1495 1499 1502 1497 1480 1460 1460 1459 1460 1460 1460 1460 1460 1459 1459 1459 1458 1458 1458 1458 1458 1458 1458 1458 1458 1459 1459 1459 1460 1460 1460 1461 1461 1461 1461
1485 1491 1491 1487 1490 1489 1487 1487 1489 1493 1497 1502 1496 1476 1460 1459 1459 1459 1459 1458 1458 1458 1458 1457 1457 1457 1456 1456 1456 1456 1456 1456 1456 1456 1456 1456 1456 1456 1457 1457 1457 1457 1457 1457
1481 1487 1488 1484 1480 1485 1487 1486 1487 1490 1492 1492 1483 1470 1461 1459 1458 1457 1457 1457 1456 1456 1456 1455 1455 1455 1454 1454 1454 1453 1453 1453 1453 1453 1453 1453 1453 1453 1454 1453 1453 1453 1453 1453
1481 1486 1486 1484 1482 1483 1482 1481 1483 1483 1480 1479 1470 1469 1459 1457 1456 1455 1455 1454 1454 1454 1453 1453 1453 1452 1452 1451 1451 1451 1451 1451 1450 1450 1450 1450 1450 1450 1450 1450 1450 1450 1449 1449
1481 1485 1486 1483 1480 1480 1478 1473 1474 1474 1473 1471 1467 1461 1454 1453 1453 1452 1452 1452 1451 1451 1451 1451 1450 1450 1449 1449 1448 1448 1448 1448 1447 1447 1447 1447 1447 1447 1446 1446 1446 1446 1445 1445
1481 1484 1485 1482 1481 1477 1472 1463 1464 1465 1463 1463 1461 1453 1450 1451 1450 1449 1449 1449 1449 1449 1449 1448 1448 1447 1447 1446 1445 1445 1445 1445 1445 1445 1444 1444 1443 1443 1442 1442 1442 1442 1442 1441
1478 1482 1485 1485 1483 1477 1458 1456 1456 1457 1456 1455 1452 1449 1448 1447 1447 1446 1446 1446 1446 1446 1446 1445 1445 1444 1444 1443 1443 1442 1442 1442 1442 1442 1441 1441 1440 1439 1439 1439 1438 1438 1438 1437
1472 1477 1483 1486 1483 1471 1457 1454 1455 1456 1452 1448 1448 1446 1446 1445 1445 1443 1444 1444 1444 1443 1443 1443 1442 1442 1441 1440 1440 1439 1439 1439 1439 1438 1438 1437 1437 1436 1436 1435 1435 1434 1434 1434
1472 1474 1480 1483 1479 1470 1453 1450 1449 1453 1452 1444 1443 1443 1444 1444 1447 1443 1442 1441 1441 1441 1440 1440 1439 1439 1438 1438 1437 1436 1436 1436 1435 1435 1435 1434 1434 1433 1432 1432 1431 1431 1431 1430
1473 1475 1475 1477 1476 1463 1450 1448 1450 1456 1449 1441 1440 1440 1441 1442 1442 1441 1439 1439 1438 1438 1437 1437 1436 1436 1435 1435 1434 1434 1433 1433 1433 1432 1432 1431 1430 1430 1429 1428 1428 1428 1427 1426
1463 1467 1470 1472 1471 1459 1445 1446 1448 1444 1439 1439 1438 1438 1439 1438 1438 1437 1437 1437 1436 1435 1435 1434 1434 1433 1433 1432 1432 1431 1430 1430 1430 1429 1429 1428 1427 1427 1426 1425 1425 1424 1423 1423
1456 1453 1454 1454 1449 1441 1439 1438 1438 1438 1437 1436 1436 1436 1436 1436 1435 1435 1435 1434 1434 1433 1433 1432 1431 1431 1430 1430 1430 1429 1428 1428 1427 1426 1425 1425 1424 1424 1423 1422 1422 1421 1420 1419
1450 1448 1449 1449 1441 1437 1436 1435 1435 1435 1435 1434 1434 1434 1434 1433 1433 1433 1433 1432 1431 1431 1430 1430 1429 1428 1428 1428 1428 1427 1426 1425 1424 1423 1423 1422 1421 1421 1420 1419 1419 1418 1417 1416
1441 1444 1445 1443 1436 1434 1432 1431 1431 1432 1432 1432 1432 1432 1432 1431 1431 1430 1430 1430 1429 1429 1428 1428 1427 1426 1426 1425 1425 1424 1423 1423 1422 1421 1420 1419 1419 1418 1417 1416 1416 1415 1414 1414
1434 1436 1438 1433 1428 1429 1427 1427 1428 1428 1428 1428 1428 1428 1429 1429 1428 1428 1427 1427 1427 1426 1426 1425 1425 1424 1423 1423 1422 1421 1421 1420 1419 1418 1417 1417 1416 1415 1415 1414 1413 1412 1412 1411